Wind_Speed
27 27 27 26 26 26 26 26 26 26 27 26 25 24 25 25 25 26 26 26 26 26 26 26 27 27 27 27 27 27 27 26 26 27 27 27 27 27 27 27 27 27 27
29 28 28 27 28 28 27 27 28 28 28 28 27 26 25 25 26 27 27 27 27 28 28 27 27 27 28 28 29 29 29 29 28 28 28 28 28 29 29 29 29 29 29
30 30 29 28 29 29 29 28 28 29 29 29 29 28 27 26 26 26 27 28 28 29 29 29 29 29 29 29 30 30 30 30 30 31 31 30 30 30 30 30 30 30 31
31 31 30 29 29 29 29 29 29 29 30 30 31 31 30 29 28 26 27 28 28 29 30 30 31 31 31 31 31 32 32 31 31 32 32 32 31 31 31 31 31 32 32
32 32 32 31 30 30 30 30 30 30 31 31 31 31 31 30 30 28 28 29 29 29 30 31 32 32 33 33 33 33 33 34 34 34 34 33 33 33 34 33 33 33 34
34 33 33 32 32 32 31 31 31 31 31 31 32 32 32 32 32 31 30 30 30 30 30 31 32 33 33 34 34 35 35 35 35 35 36 35 35 35 35 35 35 35 35
35 35 34 34 34 33 33 33 32 32 32 33 33 33 33 33 33 32 31 31 31 31 32 32 33 33 34 34 35 36 36 36 36 36 37 37 37 36 36 37 37 36 36
37 36 36 36 35 35 34 34 34 33 33 34 34 34 33 33 34 33 33 33 33 33 34 34 34 34 34 35 36 36 36 37 37 37 37 37 37 37 37 38 38 38 38
38 38 37 37 37 37 36 35 35 34 34 35 35 35 34 33 33 34 34 34 34 34 35 35 36 35 36 36 36 36 37 38 38 39 39 38 38 38 38 39 39 39 39
39 38 38 38 38 38 37 37 36 35 35 35 35 36 36 35 35 34 34 35 35 35 36 36 36 36 37 37 37 38 38 38 39 39 39 39 39 39 39 39 40 41 41
41 40 40 40 40 40 39 38 38 37 37 36 36 36 36 36 35 35 35 36 36 36 37 37 37 38 38 38 39 39 38 38 39 39 40 40 40 40 40 40 40 41 41
43 42 42 42 41 41 41 40 39 39 39 38 38 37 37 37 36 36 36 37 37 38 38 38 38 39 40 40 40 39 39 39 38 39 39 39 40 40 41 40 41 41 41
43 43 42 42 42 41 41 41 40 40 39 39 39 39 39 38 37 38 38 38 39 39 39 39 39 39 39 40 40 40 40 39 39 39 39 38 39 41 41 40 41 41 41
44 43 42 43 42 42 41 42 41 41 40 40 40 39 40 39 39 39 39 39 39 39 39 39 39 39 39 39 39 39 40 40 40 39 39 39 39 40 40 40 40 40 41
44 44 43 43 44 44 43 43 42 42 42 41 41 40 40 41 41 41 40 40 40 40 39 39 39 39 39 39 39 39 39 39 39 38 38 39 39 39 40 40 40 41 41
45 45 45 44 44 43 44 44 43 44 43 42 42 42 42 42 42 42 42 41 41 40 39 39 39 40 40 40 40 40 40 40 40 40 39 40 40 40 39 39 40 41 42
46 46 46 45 45 45 44 45 45 44 44 44 43 43 43 43 43 43 43 42 42 42 41 40 40 40 41 41 41 41 41 40 40 40 40 41 41 40 40 40 41 42 43
47 47 46 45 45 45 45 45 45 45 45 45 44 44 44 44 44 44 43 43 43 43 42 42 41 41 41 42 41 41 42 41 41 41 41 42 42 42 42 42 42 42 43
47 47 47 46 46 46 46 46 45 45 45 45 46 46 45 45 44 43 43 43 43 44 43 43 42 42 42 42 42 42 42 41 41 42 42 42 42 43 43 43 43 43 43
47 47 47 47 48 47 47 47 46 46 45 46 46 46 45 45 44 44 44 44 44 43 43 43 42 42 42 43 43 42 41 42 42 42 42 42 42 42 42 42 43 43 44
47 48 48 47 48 48 48 48 48 48 47 46 46 45 46 45 45 45 45 44 44 44 43 43 42 42 42 42 42 42 42 42 42 41 41 42 42 42 42 43 43 44 45
46 47 48 47 47 48 48 48 48 49 48 47 46 46 46 46 46 45 45 45 44 44 43 42 42 41 41 41 42 42 42 41 40 39 40 40 40 41 42 43 44 45 46
44 45 46 47 47 47 47 47 47 48 48 47 47 47 47 46 45 45 44 44 43 43 42 41 41 41 41 41 41 40 40 38 38 39 39 40 40 41 42 43 44 45 46
43 43 44 44 45 45 46 46 46 46 47 46 46 47 46 45 44 43 43 43 43 42 42 41 41 41 41 40 40 39 39 39 39 40 40 40 40 41 42 43 44 45 46
42 42 42 42 42 43 44 45 45 45 45 45 46 45 45 44 44 44 44 43 42 42 41 41 40 40 39 39 39 39 39 40 40 40 40 41 41 42 43 44 45 46 47
41 41 41 41 42 42 43 43 44 44 44 44 44 44 45 44 44 44 43 43 42 41 41 40 40 39 39 39 38 39 40 40 40 40 41 42 42 43 44 44 46 46 47
Wind_Direction
250 249 249 249 250 251 250 250 251 251 251 250 250 251 252 253 253 253 253 252 253 254 255 256 257 257 258 259 259 260 261 262 263 263 263 264 265 265 264 265 266 266 265
252 251 250 250 250 250 250 250 251 251 251 250 250 252 253 254 255 254 253 254 255 256 256 257 258 258 260 260 260 261 262 264 264 264 265 265 265 265 265 265 266 266 266
252 250 249 250 250 249 249 251 251 251 250 251 252 253 254 256 255 255 256 255 256 257 258 257 258 259 261 261 261 262 262 263 264 264 264 264 265 266 266 266 266 266 266
251 250 250 250 251 250 250 251 251 251 251 252 253 254 255 255 254 255 257 257 257 258 259 260 260 260 261 261 262 262 262 263 264 264 265 264 265 265 266 266 267 267 268
251 250 250 250 250 250 250 251 252 252 251 252 252 253 255 255 255 256 257 258 259 259 260 261 262 262 261 261 262 264 264 264 265 265 265 266 266 265 266 267 269 268 269
251 250 250 251 251 250 250 251 252 253 252 252 253 254 255 257 259 258 259 260 260 260 261 262 262 262 261 262 264 265 265 265 265 266 266 266 266 266 267 267 269 270 269
250 251 251 252 251 251 251 252 253 254 254 254 254 254 255 257 259 259 260 261 262 262 262 263 263 264 263 263 263 264 264 265 266 267 266 266 266 266 267 268 268 270 270
250 251 251 251 251 251 251 252 253 255 255 255 255 256 257 258 258 259 260 261 262 263 264 264 264 265 264 264 264 265 264 265 267 267 267 267 266 267 267 268 269 269 270
250 250 251 252 252 252 252 253 253 254 255 256 257 257 257 258 259 259 259 261 262 263 264 264 264 264 264 265 267 267 267 267 267 267 267 268 268 267 268 269 271 270 270
250 251 251 252 252 252 252 253 254 254 255 257 257 257 257 259 259 259 260 261 262 262 263 264 265 265 266 266 267 268 268 267 268 268 268 269 268 268 268 269 271 271 270
251 251 251 252 252 252 252 253 254 254 255 257 257 257 257 259 259 260 260 261 263 264 264 265 265 265 266 267 267 268 267 267 268 269 269 269 269 269 268 270 271 272 271
250 251 251 251 252 252 252 253 254 255 255 256 257 257 258 258 259 260 260 261 263 264 265 266 266 266 266 266 266 267 266 268 269 268 269 270 270 269 269 270 271 271 272
249 250 250 250 250 251 252 253 253 254 255 256 256 257 258 258 259 260 261 262 263 264 265 267 268 267 267 266 267 267 267 268 269 269 269 271 271 269 269 270 271 272 272
248 249 250 250 249 250 251 252 253 254 255 256 256 257 258 258 259 260 261 263 264 265 266 266 267 267 267 266 267 266 267 268 268 269 270 270 270 270 270 270 271 271 273
248 248 248 249 249 250 251 251 253 254 254 255 256 257 258 259 260 261 262 264 264 264 265 266 266 266 266 266 266 267 267 267 268 269 270 270 270 271 271 271 271 272 272
247 248 249 249 250 250 250 251 252 253 254 255 256 257 258 259 261 262 263 264 263 263 264 265 265 265 266 266 266 267 267 268 268 268 269 269 270 271 270 271 273 274 274
248 248 249 250 250 250 250 251 252 253 254 254 256 257 258 259 260 261 262 263 263 264 264 265 265 265 266 266 266 266 267 267 268 268 268 269 269 270 272 273 274 274 274
248 249 249 249 249 250 251 252 253 253 254 254 255 257 258 260 261 261 262 263 264 264 265 265 265 265 265 265 266 266 267 266 267 267 267 268 269 270 272 274 275 276 276
248 248 248 249 249 250 251 252 252 253 254 255 255 257 258 259 260 261 262 263 264 265 265 266 266 265 265 265 266 266 266 266 267 268 268 269 270 271 272 274 275 276 278
249 248 248 249 250 251 251 252 252 253 254 255 256 257 257 258 259 260 261 262 263 264 265 266 266 265 265 265 265 266 266 267 268 268 269 270 271 272 273 275 276 277 278
248 248 248 249 249 250 251 252 252 253 254 255 256 255 256 257 258 259 261 262 263 264 264 265 265 265 265 265 265 265 266 267 268 268 270 270 272 274 275 276 277 277 278
249 248 248 249 249 249 250 251 252 253 254 254 254 255 256 258 258 259 260 261 262 264 264 264 264 265 265 265 265 265 266 267 267 269 271 272 274 275 275 276 277 278 279
249 250 250 250 250 250 251 251 251 252 253 253 254 255 256 257 258 258 259 260 261 263 264 264 264 265 265 264 264 265 266 267 268 270 271 273 275 276 277 278 278 279 280
249 250 250 250 250 250 251 252 252 252 251 251 253 254 255 256 257 258 259 260 261 262 264 264 264 264 264 263 264 265 266 267 268 269 272 275 276 278 279 280 281 282 283
249 249 249 250 250 250 251 251 252 251 251 252 253 253 254 254 256 258 259 260 260 262 262 263 263 263 263 264 264 265 267 268 270 271 273 276 277 279 280 281 282 284 284
249 249 250 250 250 250 251 252 251 251 251 252 252 251 251 252 254 256 257 258 259 261 261 262 262 263 264 264 265 266 268 269 271 273 275 277 278 279 281 282 283 283 283
Height
5792 5794 5795 5796 5798 5799 5800 5801 5803 5804 5805 5807 5808 5809 5810 5811 5812 5813 5814 5815 5816 5816 5817 5818 5819 5819 5820 5821 5821 5821 5822 5822 5823 5823 5824 5824 5824 5824 5825 5825 5825 5825 5825
5786 5787 5789 5790 5791 5793 5794 5795 5797 5798 5799 5801 5802 5803 5804 5805 5806 5807 5808 5809 5810 5811 5811 5812 5813 5814 5814 5815 5815 5816 5816 5817 5817 5817 5818 5818 5818 5818 5819 5819 5819 5819 5819
5779 5780 5782 5783 5785 5786 5788 5789 5790 5792 5793 5794 5796 5797 5798 5799 5800 5801 5802 5803 5804 5804 5805 5806 5807 5807 5808 5808 5809 5809 5810 5810 5811 5811 5811 5811 5812 5812 5812 5812 5812 5812 5813
5772 5773 5775 5776 5778 5779 5781 5783 5784 5785 5786 5788 5789 5791 5792 5793 5794 5794 5795 5796 5797 5798 5799 5799 5800 5800 5801 5801 5802 5802 5803 5803 5804 5804 5804 5804 5805 5805 5805 5806 5806 5806 5806
5764 5766 5768 5769 5771 5772 5774 5776 5777 5779 5780 5781 5782 5783 5785 5786 5787 5788 5788 5789 5790 5791 5791 5792 5793 5793 5793 5794 5794 5795 5795 5795 5796 5796 5796 5797 5797 5798 5798 5798 5798 5798 5798
5757 5758 5760 5762 5763 5765 5767 5768 5770 5771 5773 5774 5775 5776 5778 5779 5780 5780 5781 5782 5783 5783 5784 5784 5785 5786 5786 5786 5786 5786 5787 5787 5788 5788 5788 5789 5789 5790 5790 5790 5791 5790 5790
5748 5750 5752 5754 5756 5757 5759 5761 5762 5763 5765 5766 5768 5769 5770 5771 5772 5773 5774 5775 5775 5776 5776 5777 5777 5778 5778 5778 5778 5778 5778 5779 5779 5779 5780 5780 5781 5781 5782 5782 5782 5782 5782
5739 5741 5743 5745 5747 5749 5751 5753 5754 5755 5757 5759 5760 5761 5762 5764 5765 5765 5766 5767 5767 5768 5768 5769 5769 5769 5770 5770 5770 5770 5770 5770 5770 5770 5770 5771 5772 5772 5773 5773 5773 5773 5773
5730 5732 5734 5736 5738 5740 5742 5744 5746 5747 5748 5750 5751 5753 5754 5756 5756 5758 5758 5759 5759 5760 5760 5760 5761 5761 5761 5761 5761 5761 5761 5761 5761 5761 5761 5761 5762 5763 5763 5763 5764 5764 5764
5720 5723 5725 5727 5729 5731 5733 5735 5737 5739 5740 5741 5743 5744 5746 5747 5748 5749 5750 5750 5751 5751 5751 5752 5752 5752 5752 5752 5752 5752 5752 5751 5751 5751 5751 5751 5752 5753 5753 5753 5754 5754 5754
5710 5713 5715 5717 5719 5721 5723 5726 5728 5730 5731 5732 5734 5735 5736 5738 5739 5740 5741 5742 5742 5742 5742 5742 5742 5742 5742 5742 5742 5742 5742 5741 5741 5741 5741 5741 5742 5742 5743 5743 5744 5744 5743
5699 5702 5704 5707 5709 5711 5713 5716 5718 5720 5721 5723 5725 5726 5727 5729 5730 5731 5732 5732 5733 5733 5733 5733 5732 5732 5732 5732 5732 5732 5732 5731 5731 5731 5731 5732 5732 5732 5733 5733 5733 5733 5733
5688 5691 5693 5696 5698 5700 5703 5705 5707 5709 5711 5713 5715 5716 5718 5719 5720 5721 5721 5722 5723 5723 5723 5723 5722 5722 5722 5722 5722 5722 5722 5722 5722 5721 5722 5722 5722 5722 5722 5722 5722 5722 5722
5676 5679 5682 5685 5687 5690 5692 5694 5697 5699 5701 5703 5704 5706 5708 5709 5710 5710 5711 5712 5712 5713 5713 5713 5712 5711 5711 5711 5711 5712 5712 5712 5712 5711 5712 5712 5712 5712 5712 5712 5711 5711 5711
5664 5667 5670 5673 5676 5678 5681 5683 5686 5688 5690 5692 5694 5695 5697 5698 5699 5700 5700 5701 5701 5702 5703 5703 5702 5701 5701 5701 5701 5701 5702 5702 5702 5702 5701 5701 5701 5701 5701 5701 5700 5700 5700
5652 5656 5659 5661 5664 5667 5669 5672 5674 5677 5679 5681 5682 5684 5686 5687 5688 5688 5689 5690 5690 5690 5691 5692 5692 5691 5691 5691 5691 5691 5691 5691 5691 5691 5691 5691 5691 5691 5691 5690 5690 5689 5688
5640 5643 5646 5649 5652 5655 5657 5660 5663 5665 5667 5669 5671 5673 5674 5676 5677 5677 5678 5678 5679 5679 5680 5681 5681 5681 5680 5680 5680 5681 5681 5681 5681 5681 5681 5681 5680 5680 5680 5679 5679 5678 5678
5627 5631 5634 5637 5640 5643 5645 5648 5651 5653 5655 5657 5659 5661 5663 5664 5665 5666 5666 5667 5668 5668 5669 5669 5670 5670 5670 5669 5669 5670 5670 5670 5670 5670 5670 5670 5669 5669 5669 5668 5668 5667 5666
5614 5618 5621 5624 5627 5630 5633 5635 5638 5640 5643 5645 5647 5649 5651 5652 5654 5654 5655 5656 5656 5657 5657 5657 5658 5658 5658 5658 5658 5659 5659 5659 5659 5659 5659 5659 5658 5658 5657 5657 5656 5655 5654
5601 5605 5608 5611 5614 5617 5619 5622 5625 5627 5630 5632 5634 5636 5638 5640 5642 5643 5643 5644 5645 5645 5645 5646 5646 5646 5647 5646 5647 5647 5647 5648 5648 5647 5647 5647 5646 5646 5645 5645 5644 5643 5641
5588 5591 5594 5597 5600 5604 5606 5609 5612 5614 5617 5619 5621 5623 5626 5628 5629 5630 5632 5632 5633 5633 5634 5634 5634 5635 5635 5635 5636 5636 5636 5636 5636 5635 5635 5635 5635 5634 5633 5632 5631 5630 5628
5574 5577 5581 5584 5587 5590 5593 5595 5598 5601 5604 5606 5609 5611 5613 5615 5617 5618 5619 5620 5621 5621 5622 5622 5623 5623 5624 5624 5624 5624 5624 5625 5625 5625 5624 5623 5622 5622 5621 5620 5618 5617 5615
5561 5564 5568 5571 5574 5577 5579 5582 5584 5587 5590 5593 5595 5598 5601 5602 5604 5605 5607 5608 5608 5609 5610 5611 5611 5612 5612 5612 5612 5613 5613 5613 5613 5613 5612 5612 5611 5610 5608 5607 5605 5604 5602
5549 5552 5555 5558 5561 5564 5566 5568 5571 5573 5577 5580 5582 5585 5588 5590 5591 5592 5594 5595 5596 5597 5598 5599 5600 5601 5600 5600 5601 5601 5601 5602 5602 5602 5601 5600 5599 5597 5596 5594 5593 5591 5588
5537 5540 5543 5545 5548 5551 5553 5555 5558 5561 5564 5567 5569 5572 5574 5577 5579 5580 5582 5583 5585 5586 5586 5587 5588 5588 5588 5589 5589 5590 5590 5590 5591 5591 5589 5588 5587 5585 5584 5582 5579 5577 5574
5525 5528 5531 5533 5536 5539 5541 5543 5545 5548 5552 5554 5557 5559 5562 5564 5566 5567 5569 5571 5572 5574 5574 5575 5576 5576 5577 5578 5578 5578 5578 5579 5579 5579 5578 5576 5574 5573 5572 5570 5566 5563 5561